Location: *
(60.1759°S, 155.0663°W)
Time: 05:17:53
(UTC+00:00)

Cosmos 1656 - Pass Details

Date: 17 September 2019
Orbit: 798 x 849 km, 71.1° (Epoch: 16 October)

Event Time Altitude Azimuth Distance (km) Brightness Sun altitude
Rises 13:46:21 0° 219° (SW) 3,371 6.8 -19.5°
Reaches altitude 10° 13:48:52 10° 225° (SW) 2,441 6.0 -19.2°
Maximum altitude 13:54:08 44° 295° (WNW) 1,137 3.9 -18.7°
Drops below altitude 10° 13:59:26 10° 6° (N) 2,450 5.9 -18.1°
Sets 14:01:58 0° 11° (NNE) 3,385 6.7 -17.8°
